Location: Fort Worth, Tx
(32.7431°N, 97.3695°W)
Time: 01:04:45
(UTC-04:00)

Vanguard 2 - Pass Details

Date: 03 March 2024
Orbit: 552 x 2916 km, 32.9° (Epoch: 24 April)

Event Time Altitude Azimuth Distance (km) Brightness Sun altitude
Rises 00:17:38 0° 284° (WNW) 5,229 12.2 -57.4°
Reaches altitude 10° 00:20:42 10° 280° (W) 4,506 11.7 -57.9°
Enters shadow 00:25:20 28° 270° (W) 3,594 10.9 -58.5°
